Location: Highridge
(54.0333°N, 114.1333°W)
Time: 23:52:20
(UTC+00:00)

PRISM - Visible Passes

Search period start: 06 December 2023 00:00
Search period end: 16 December 2023 00:00
Orbit: 522 x 542 km, 98.2° (Epoch: 06 December)

Date Brightness Start Highest point End Pass type
(mag) Time Alt. Az. Time Alt. Az. Time Alt. Az.
06 Dec ? 01:20:16 13° NNE 01:20:16 13° NNE 01:20:51 10° N visible
06 Dec ? 14:17:10 10° ENE 14:18:35 12° E 14:20:00 10° ESE visible
07 Dec ? 01:10:33 12° NNE 01:10:33 12° NNE 01:10:58 10° N visible
07 Dec ? 02:45:54 10° NNW 02:45:54 10° NNW 02:45:56 10° NNW visible
08 Dec ? 01:00:49 11° NNE 01:00:49 11° NNE 01:01:00 10° NNE visible
08 Dec ? 02:36:10 10° NNW 02:36:10 10° NNW 02:36:14 10° NNW visible
09 Dec ? 02:26:24 10° NNW 02:26:24 10° NNW 02:26:29 10° NNW visible
10 Dec ? 02:16:37 11° NNW 02:16:37 11° NNW 02:16:42 10° NNW visible
11 Dec ? 02:06:47 10° N 02:06:47 10° N 02:06:52 10° N visible
11 Dec ? 15:01:09 10° NE 15:04:32 29° E 15:07:53 10° SSE visible
12 Dec ? 01:56:56 10° N 01:56:56 10° N 01:56:59 10° N visible
12 Dec ? 14:51:30 10° NE 14:54:38 23° E 14:57:43 10° SSE visible
13 Dec ? 01:47:03 10° N 01:47:03 10° N 01:47:03 10° N visible
13 Dec ? 14:41:54 10° NE 14:44:41 19° E 14:47:27 10° SE visible
14 Dec ? 14:32:23 10° NE 14:34:43 15° E 14:37:01 10° SE visible
15 Dec ? 14:23:03 10° ENE 14:24:42 12° E 14:26:19 10° ESE visible
